Regional Weather Roundup
Issued by NWS Boston, MA

Current Version | Previous Version | Text Only | Print | Product List | Glossary On
Versions: 1 2 3 4 5 6 7 8 9 10 11 12 13 14 15 16 17 18 19 20 21 22 23 24 25 26 27 28 29 30 31 32 33 34 35 36 37 38 39 40 41 42 43 44 45 46 47 48 49 50
000 ASUS41 KBOX 241210 RWRBOX REGIONAL WEATHER ROUNDUP NATIONAL WEATHER SERVICE TAUNTON MA 700 AM EST MON NOV 24 2014 NOTE: "FAIR" INDICATES FEW OR NO CLOUDS BELOW 12,000 FEET WITH NO SIGNIFICANT WEATHER AND/OR OBSTRUCTIONS TO VISIBILITY. THE FOLLOWING OBSERVATION LOCATIONS DO NOT REPORT PRESENT WEATHER...PROVINCETOWN... SMITHFIELD...BLOCK ISLAND...KEENE...AND OXFORD. MAZALL-241300- EASTERN MASSACHUSETTS CITY SKY/WX TMP DP RH WIND PRES REMARKS BOSTON LGT RAIN 54 52 93 S17 29.88F FOG 6HR MIN TEMP: 42; 6HR MAX TEMP: 54; 6HR PCP: 0.03; BEVERLY LGT RAIN 53 50 89 SE15G29 29.88F FOG LAWRENCE RAIN 53 51 93 SE13G18 29.88F FOG BEDFORD RAIN 55 54 96 SE17G25 29.84F FOG BLUE HILL N/A 54 54 100 SE23G37 29.85F NORWOOD RAIN 57 55 93 SE14G22 29.87F FOG MARSHFIELD LGT RAIN 57 55 94 S13G20 29.92F PLYMOUTH HVY RAIN 57 56 96 SE9G29 29.91F FOG TAUNTON RAIN 58 55 90 S14G26 29.89F FOG NEW BEDFORD RAIN 57 55 93 S18G35 29.89F FOG $$ MAZALL-241300- CAPE COD AND THE ISLANDS CITY SKY/WX TMP DP RH WIND PRES REMARKS FALMOUTH CLOUDY 57 55 94 S21G29 29.94R FOG HYANNIS LGT RAIN 56 52 86 S12G24 29.93F CHATHAM CLOUDY 55 52 89 S15G26 29.96F PROVINCETOWN CLOUDY 55 52 88 S15G24 29.94F NANTUCKET CLOUDY 56 51 84 SE23G32 29.94F MARTHAS VNYRD RAIN 57 55 93 S23G32 29.93S FOG $$ MAZALL-241300- CENTRAL AND WESTERN MASSACHUSETTS CITY SKY/WX TMP DP RH WIND PRES REMARKS WORCESTER LGT RAIN 49 49 100 SE14G21 29.79F VSB 1/4 6HR MIN TEMP: 41; 6HR MAX TEMP: 49; 6HR PCP: 0.35; FITCHBURG RAIN 40 38 93 CALM 29.83F FOG ORANGE HVY RAIN 44 42 93 SE7 29.75F FOG SPRINGFIELD RAIN 58 57 95 S17 29.71F FOG WESTFIELD RAIN 41 39 93 CALM 29.73F FOG NORTH ADAMS LGT RAIN 49 46 90 E23G29 29.68F PITTSFIELD LGT RAIN 54 52 93 SE8G21 29.66F FOG $$ RIZALL-241300- RHODE ISLAND CITY SKY/WX TMP DP RH WIND PRES REMARKS PROVIDENCE HVY RAIN 56 55 97 SE21 29.87F FOG 6HR MIN TEMP: 39; 6HR MAX TEMP: 56; 6HR PCP: 0.42; NEWPORT LGT RAIN 59 56 89 SE21G31 29.86F FOG BLOCK ISLAND CLOUDY N/A N/A N/A S24G33 29.85F SMITHFIELD CLOUDY 55 52 88 S9G21 29.85F WESTERLY RAIN 58 57 97 SE20G30 29.81F FOG $$ CTZALL-241300- CONNECTICUT CITY SKY/WX TMP DP RH WIND PRES REMARKS BRADLEY INTL LGT RAIN 56 52 86 S15 29.71F FOG 6HR MIN TEMP: 42; 6HR MAX TEMP: 47; 6HR PCP: 0.51; HARTFORD LGT RAIN 60 58 92 S18G25 29.72F FOG BRIDGEPORT LGT RAIN 60 58 92 S24G38 29.72F DANBURY RAIN 62 57 83 S17G29 29.71F GROTON LGT RAIN 57 57 100 SE25G38 29.80F FOG NEW HAVEN LGT RAIN 62 57 83 S23G33 29.74F CHESTER LGT RAIN 59 59 100 S17G30 29.78F MERIDEN HVY RAIN 60 58 92 S18G29 29.73F FOG WILLIMANTIC RAIN 61 57 87 S16G24 29.78F FOG $$ MEZ002-015-021-024-NHZ003-005-008-011-012-014-VTZ005-008-241300- NORTHERN NEW ENGLAND CITY SKY/WX TMP DP RH WIND PRES REMARKS PORTLAND ME LGT RAIN 53 51 93 SE12 29.93F FOG 6HR MIN TEMP: 38; 6HR MAX TEMP: 53; 6HR PCP: 0.03; BANGOR ME CLOUDY 47 44 90 S12 30.00F CONCORD NH RAIN 47 46 97 SE9 29.84F FOG MANCHESTER NH RAIN 52 49 89 SE16 29.82F FOG NASHUA NH RAIN 40 39 96 CALM 29.85F FOG PORTSMOUTH NH RAIN 52 51 94 SE16 29.88F FOG JAFFREY NH LGT RAIN 48 47 96 SE10 29.78F KEENE NH CLOUDY 52 48 87 S9 29.74F BURLINGTON VT LGT RAIN 52 46 80 S13G24 29.59F MT. WASHINGTON RAIN 32 32 100 S68G78 N/A VSB 0 WCI 12 $$ NYZ052-076-241300- EASTERN NEW YORK CITY SKY/WX TMP DP RH WIND PRES REMARKS ALBANY DRZL/FOG 47 45 93 SW6 29.61F VSB 1 6HR MIN TEMP: 46; 6HR MAX TEMP: 52; 6HR PCP: 0.14; NEW YORK CITY LGT RAIN 60 58 92 S23G39 29.71R FOG 6HR MIN TEMP: 49; 6HR MAX TEMP: 62; 6HR PCP: 0.61; $$ ANZALL-241300- MARINE OBSERVATIONS STATION/POSITION TIME TEMP WIND PRES VSBY WAVE AIR SEA DIR/SP/G HT/PER (UTC) (F) (DEG/KT/KT) (MB) (MI) (FT/S) BOSTON BUOY 1150 53 50 150/ 19/ 21 1012.5F 3/ 4 BUZZARDS BAY 1100 150/ 27/ 30 1012.4F NANTUCKET SOUND 1150 56 47 150/ 25/ 33 1012.8F 3/ 4 MASS BAY-STELLWA 1104 52 50 140/ 17/ 23 N/A 1 7/8 2/ 3 ISLE OF SHOALS 1200 53 150/ 24/ 27 1011.5F S OF BLOCK IS 1108 56 N/A 6/ 5 $$ ......................KEY......................... SKY/WX - SKY CONDITION/PRESENT WEATHER TMP - TEMPERATURE IN FAHRENHEIT DWPT - DEWPOINT IN FAHRENHEIT RH - RELATIVE HUMIDITY IN PERCENT WIND - DIRECTION AND SPEED IN MPH PRES - MEAN SEA LEVEL PRESSURE IN INCHES OF HG WCI - WIND CHILL INDEX VSB - VISIBILITY IN MILES HX - HEAT INDEX TC - TEMPERATURE IN CELSIUS VRB - VARIABLE WIND DIRECTION N/A - NOT AVAILABLE

USA.gov is the U.S. government's official web portal to all federal, state and local government web resources and services.